SENTINEL-3A (41335 NORAD) Tracking and Keplerian Element Data

This shows tracking and keplerian element data for the satellite.

Feedback or suggestion? Click here.




ElementValue
Catalog41335
NameSENTINEL-3A
Epoch Orbit13497
Epoch Day263.35133547
Epoch Year2018
RAAN329.1974
Inclination98.6316
Eccentricity0.0001033
Argument of Perigee104.5978
Mean Anonmoly255.5317
Mean Motion14.26734196
Decay Rate-1.5E-07
L11 41335U 16011A 18263.35133547 -.00000015 00000-0 11956-4 0 9999
L22 41335 98.6316 329.1974 0001033 104.5978 255.5317 14.26734196134972

Live tracking and technical data element details for SENTINEL-3A (NORAD 41335). SENTINEL-3A can be tracked NOW for your location showing map with azimuth and elevation plus other details from your city location.

Track the satellite on the map from your city or location and see movement details for azimuth, elevation, latitude, longitude, range, height, and movement on the map or in text.







IsCatalogInMostPopularTable: catalog: 41335, numindb: 106
Update: records affected: 1



GetName: 41335 SENTINEL-3A

Hit Count: updated at: Sat, 22 Sep 2018 14:42:58 GMT